Skip Page Navigation
NASA JPL Caltech
NASA Logo - Jet Propulsion Laboratory + View the NASA Portal
+ Center for Near-Earth Object Studies
JPL Home Earth Solar System Stars & Galaxies Technology
JPL Solar System Dynamics
BODIES ORBITS EPHEMERIDES TOOLS PHYSICAL DATA DISCOVERY FAQ SITE MAP
IMPORTANT: The SSD Announcement email list is now available. Major changes are coming in the near future, including possible hostname and/or URL changes. To be notified of such changes, subscribe to this email list.

Please visit this page for more details.


JPL Small-Body Database Browser
Search: [ help ]  
95419 (2002 CH224)
Classification: Main-belt Asteroid          SPK-ID: 2095419
Ephemeris | Orbit Diagram | Orbital Elements | Mission Design | Physical Parameters | Discovery Circumstances | Close-Approach Data ]

[ show orbit diagram ]
Orbital Elements at Epoch 2459000.5 (2020-May-31.0) TDB
Reference: JPL 15 (heliocentric ecliptic J2000)
 Element Value Uncertainty (1-sigma)   Units 
e .03811656014190142 4.0871e-08  
a 2.648390794887574 1.7634e-08 au
q 2.547443247874984 1.1104e-07 au
i 4.134022735180558 5.8052e-06 deg
node 143.2972733274464 8.6376e-05 deg
peri 330.5549389758056 0.00016053 deg
M 134.9675826763782 0.00013059 deg
tp 2458410.300957972636
(2018-Oct-18.80095797)
0.00057215 TDB
period 1574.242132196366
4.31
1.5723e-05
4.305e-08
d
yr
n .2286814668704945 2.2839e-09 deg/d
Q 2.749338341900164 1.8306e-08 au
  Orbit Determination Parameters
   # obs. used (total)      424  
   data-arc span      10040 days (27.49 yr)  
   first obs. used      1991-10-04  
   last obs. used      2019-03-31  
   planetary ephem.      DE431  
   SB-pert. ephem.      SB431-N16  
   condition code      0  
   norm. resid. RMS      .68638  
   source      ORB  
   producer      Otto Matic  
   solution date      2019-Jul-13 11:05:16  

Additional Information
 Earth MOID = 1.56465 au 
 Jupiter MOID = 2.27063 au 
 T_jup = 3.387 
[ show covariance matrix ]

Ephemeris | Orbit Diagram | Orbital Elements | Mission Design | Physical Parameters | Discovery Circumstances | Close-Approach Data ]

Physical Parameter Table
Parameter Symbol Value Units Sigma Reference Notes
absolute magnitude H 16.0   n/a MPO436437  

95419 (2002 CH224)          Discovered 2002-Feb-11 by LINEAR at Socorro
Reference: 20041028/Numbers.arcLast Updated: 2004-10-29

[ show close-approach data ]
Alternate Designations
 2002 CH224 = 1998 HM8 
Ephemeris | Orbit Diagram | Orbital Elements | Mission Design | Physical Parameters | Discovery Circumstances | Close-Approach Data ]
ABOUT SSD CREDITS/AWARDS PRIVACY/COPYRIGHT GLOSSARY LINKS
FirstGov 2020-Feb-16 22:23 UT
(server date/time)  
NASA Home Page
Site Manager:   Ryan S. Park
Webmaster  Alan B. Chamberlin